Change the Weather History Date:

Friday, February 28, 2014

  Actual Average Record
Temperature  
Mean Temperature 0 °F -  
Max Temperature 10 °F 30 °F 51 °F (1985)
Min Temperature -9 °F 12 °F -31 °F (1962)
Degree Days  
Heating Degree Days 64    
Moisture  
Dew Point -9 °F    
Average Humidity 68    
Maximum Humidity 75    
Minimum Humidity 62    
Precipitation  
Precipitation 0.00 in - - ()
Sea Level Pressure  
Sea Level Pressure 30.02 in    
Wind  
Wind Speed 13 mph (WSW)    
Max Wind Speed 20 mph    
Max Gust Speed 25 mph    
Visibility 10 miles    
Events      
Averages and records for this station are not official NWS values.
T = Trace of Precipitation, MM = Missing Value Source: NWS Daily Summary

Daily Weather History Graph

Daily Weather History Graph

Search for Another Location

Airport or City:

Trip Planner

Search our weather history database for the weather conditions in past years. The results will help you decide how hot, cold, wet, or windy it might be!

Date:

Astronomy

Feb. 28, 2014 Rise Set
Actual Time 7:01 AM CST 6:06 PM CST
Civil Twilight 6:32 AM CST 6:36 PM CST
Nautical Twilight 5:57 AM CST 7:11 PM CST
Astronomical Twilight 5:23 AM CST 7:46 PM CST
Moon 6:17 AM CST (2/28) 5:45 PM CST (2/28)
Length of Visible Light 12h 04m
Length of Day
11h 04m
Waning Crescent, 1% of the Moon is Illuminated
Feb 28
Waning Crescent
Mar 1
New
Mar 8
First Quarter
Mar 16
Full
Mar 23
Last Quarter

Hourly Weather History & Observations

Time (CST) Temp. Windchill Dew Point Humidity Pressure Visibility Wind Dir Wind Speed Gust Speed Precip Events Conditions
12:53 AM -6.0 °F -25.5 °F -15.0 °F 65% 30.01 in 10.0 mi SE 12.7 mph - N/A   Mostly Cloudy
1:53 AM -8.0 °F -27.1 °F -17.0 °F 65% 30.00 in 10.0 mi SSE 11.5 mph - N/A   Clear
2:53 AM -9.0 °F -27.4 °F -18.0 °F 65% 29.97 in 10.0 mi SE 10.4 mph - N/A   Clear
3:53 AM -9.0 °F -29.3 °F -18.0 °F 65% 29.93 in 10.0 mi SE 12.7 mph - N/A   Clear
4:53 AM -9.0 °F -28.4 °F -18.9 °F 62% 29.93 in 10.0 mi SE 11.5 mph - N/A   Clear
5:53 AM -9.0 °F -28.4 °F -18.0 °F 65% 29.91 in 10.0 mi SE 11.5 mph - N/A   Overcast
6:53 AM -7.1 °F -25.9 °F -16.1 °F 65% 29.91 in 10.0 mi SE 11.5 mph - N/A   Overcast
7:53 AM -6.0 °F -23.6 °F -15.0 °F 65% 29.92 in 10.0 mi SE 10.4 mph - N/A   Overcast
8:53 AM -2.9 °F -20.8 °F -11.9 °F 65% 29.91 in 10.0 mi SSE 11.5 mph - N/A   Mostly Cloudy
9:53 AM 1.0 °F -15.8 °F -7.1 °F 69% 29.91 in 10.0 mi South 11.5 mph - N/A   Clear
10:53 AM 3.9 °F -10.4 °F -4.0 °F 70% 29.91 in 10.0 mi South 9.2 mph - N/A   Clear
11:10 AM 3.2 °F -12.2 °F -4.0 °F 72% 29.80 in 10.0 mi SSW 10.4 mph - N/A   Mostly Cloudy
11:53 AM 5.0 °F -10.0 °F -2.9 °F 70% 29.92 in 10.0 mi SSW 10.4 mph - N/A   Overcast
12:53 PM 8.1 °F -6.2 °F 1.0 °F 73% 29.94 in 10.0 mi West 10.4 mph - N/A   Overcast
1:53 PM 10.9 °F -4.7 °F 1.9 °F 67% 29.95 in 9.0 mi WNW 13.8 mph - N/A   Overcast
2:53 PM 10.9 °F -4.7 °F 3.0 °F 70% 29.97 in 10.0 mi WNW 13.8 mph - N/A   Overcast
3:27 PM 10.4 °F -7.7 °F 1.4 °F 67% 29.87 in 10.0 mi NW 18.4 mph - N/A   Scattered Clouds
3:53 PM 10.9 °F -7.5 °F 1.9 °F 67% 30.01 in 10.0 mi NW 19.6 mph - N/A   Scattered Clouds
4:53 PM 9.0 °F -9.0 °F -0.0 °F 67% 30.05 in 10.0 mi NW 17.3 mph 25.3 mph N/A   Partly Cloudy
5:53 PM 6.1 °F -11.6 °F -2.9 °F 67% 30.11 in 10.0 mi NW 15.0 mph 24.2 mph N/A   Clear
6:53 PM 3.0 °F -15.5 °F -6.0 °F 66% 30.15 in 10.0 mi NNW 15.0 mph 25.3 mph N/A   Overcast
7:53 PM -0.9 °F -21.2 °F -9.0 °F 69% 30.19 in 10.0 mi NNW 16.1 mph - N/A   Clear
8:53 PM -4.0 °F -25.8 °F -11.9 °F 69% 30.22 in 10.0 mi NNW 17.3 mph - N/A   Clear
9:53 PM -6.0 °F -23.6 °F -13.0 °F 72% 30.29 in 10.0 mi NNW 10.4 mph 20.7 mph N/A   Clear
10:53 PM -7.1 °F -25.9 °F -13.0 °F 75% 30.31 in 10.0 mi NW 11.5 mph - N/A   Clear
11:53 PM -8.0 °F -28.8 °F -14.1 °F 75% 30.33 in 10.0 mi NNW 13.8 mph - N/A   Clear